YAOGAN 30

Satellite information

Favourite Embed

Satellite Type and Status

PAYLOADIN ORBIT

Key statistics

Satellite YAOGAN 30 at a glance.

Uptime

3340

Days in orbit

Revolutions

≈ 14.8

Per day

Orbit

SSO

Sun Synchronous Orbit

Inclination

98.0

Latest

Satellite identification and parameters

Extended collection of information and parameters for YAOGAN 30.

Object identification

Identified? True

Debris? False

Object name: YAOGAN 30

International designator: 2016-029A

Object number (NORAD): 41473

Object ID (CCSDS): 41473

Country: PEOPLES REPUBLIC OF CHINA (PRC)

Current information (Y/N): Y

RCS size: LARGE

Orbital parameters

Period: 97.541 minutes

Inclination: 97.953 deg

SMA: 7019.149 km

Apoapsis: 651.283 km

Periapsis: 630.745 km

RAAN: 239.2045 deg

Eccentricy: 0.001463

Argument of periapsis: 265.8802 deg

Mean anomaly: 94.0736 deg

Mean motion: 14.76304999 rev/day

Mean motion (dot): 0.0000045 rev/day2

B* drag term: 0.000072265 1/REarth

Two-line elements (TLE)

Creation date: July 6, 2025, 10:56 p.m.

Reference frame: TEME

Reference center: EARTH

Epoch: July 6, 2025, 9:19 p.m. UTC

TLE line 0: 0 YAOGAN 30

TLE line 1: 1 41473U 16029A 25187.88872927 .00000450 00000-0 72265-4 0 9996

TLE line 2: 2 41473 97.9530 239.2045 0014630 265.8802 94.0736 14.76304999492718

Live tracking on map

Real-time ground track for satellite YAOGAN 30.

In-orbit conjunctions

There are no conjunctions computed for YAOGAN 30, at the moment. Check back to stay up to date, as we update our databases every day.

Go to all conjunctions

Associated space launch

The satellite will be used for experiments, land surveys, crop yield estimates and disaster relief.

YAOGAN 30 was lifted into orbit during the mission ‘Long March 2D | Yaogan-30’, on board a Long March 2D space rocket.

The launch took place on May 15, 2016, 2:43 a.m. from Launch Area 4 (SLS-2 / 603).

For more information about the launch, click the button.

Launch to space Long March 2D | Yaogan-30
Long March 2D | Yaogan-30

Agency: N/A

Status: Launch Successful

Launch date: May 15, 2016, 2:43 a.m. UTC

Rocket: Long March 2D

Launch pad: Launch Area 4 (SLS-2 / 603)

Location: Jiuquan Satellite Launch Center, People's Republic of China

...

Latest news about this satellite

There are no fresh news available about this satellite. Check back as we update our databases every day.


Newsletter sign-up

Weekly statistics, charts and insights to help you stay on top of the space industry.